sat.trackr.live / text

‹ back to catalog

STARLINK-34976

NORAD 65209 · 2025-176M

PAYLOAD ACTIVE UNKNOWN

§ Identity

Operator
Country
US
Launch date
2025-08-14
Launch site
AFETR
Launch vehicle
Mass (kg)
RCS (m²)

Purposes: comms

External: N2YO · Heavens-Above · Gunter

§ Orbital elements

Epoch: 2026-09-20T11:48:48.984768Z

Period
93.85 min
Inclination
53.1602°
Eccentricity
0.0001069
Mean motion
15.34425198 rev/d
Perigee alt
461.9 km
Apogee alt
463.4 km
Semi-major
6,840.8 km
B*
4.1608e-4
RAAN
323.7736°
Arg perigee
76.7571°
Mean anomaly
283.3551°
Rev number
6,300

§ Raw data

STARLINK-349761 65209U 25176M   26263.49223362  .00013719  00000+0  41608-3 0  99952 65209  53.1602 323.7736 0001069  76.7571 283.3551 15.34425198 63009

JSON: /api/v1/satellites/65209 · /tle

For live sub-satellite position, see the globe view (requires WebGL).

§ Visibility from observer

Set your observer location to see the next 7 days of passes ≥ 10°. The values pass through the URL so the page stays shareable.

No JS? Fill the form by hand. The geolocation button needs JavaScript.